sat.trackr.live / text

‹ back to catalog

STARLINK-34902

NORAD 65326 · 2025-189D

PAYLOAD ACTIVE UNKNOWN

§ Identity

Operator
Country
US
Launch date
2025-08-27
Launch site
AFETR
Launch vehicle
Mass (kg)
RCS (m²)

Purposes: comms

External: N2YO · Heavens-Above · Gunter

§ Orbital elements

Epoch: 2026-09-20T22:00:03.000096Z

Period
93.85 min
Inclination
53.1586°
Eccentricity
0.0000994
Mean motion
15.34387979 rev/d
Perigee alt
462.1 km
Apogee alt
463.4 km
Semi-major
6,840.9 km
B*
-3.2335e-4
RAAN
17.5938°
Arg perigee
77.7142°
Mean anomaly
149.7960°
Rev number
578

§ Raw data

STARLINK-349021 65326U 25189D   26263.91670139 -.00011280  00000+0 -32335-3 0  99942 65326  53.1586  17.5938 0000994  77.7142 149.7960 15.34387979  5787

JSON: /api/v1/satellites/65326 · /tle

For live sub-satellite position, see the globe view (requires WebGL).

§ Visibility from observer

Set your observer location to see the next 7 days of passes ≥ 10°. The values pass through the URL so the page stays shareable.

No JS? Fill the form by hand. The geolocation button needs JavaScript.